Weather History for Eveleth, MN

Change the Weather History Date:

Tuesday, November 22, 2011

  Actual Average Record
Temperature  
Mean Temperature 28 °F -  
Max Temperature 33 °F 31 °F 61 °F (1990)
Min Temperature 23 °F 16 °F 0 °F (2000)
Degree Days  
Heating Degree Days 37    
Moisture  
Dew Point 29 °F    
Average Humidity 95    
Maximum Humidity 100    
Minimum Humidity 86    
Precipitation  
Precipitation 0.00 in - - ()
Sea Level Pressure  
Sea Level Pressure 30.08 in    
Wind  
Wind Speed 3 mph (SSW)    
Max Wind Speed 9 mph    
Max Gust Speed -    
Visibility 3 miles    
Events Fog    
Averages and records for this station are not official NWS values.
T = Trace of Precipitation, MM = Missing Value Source: NWS Daily Summary

Daily Weather History Graph

Daily Weather History Graph

Search for Another Location

Airport:

Trip Planner

Search our weather history database for the weather conditions in past years. The results will help you decide how hot, cold, wet, or windy it might be!

Date:

Astronomy

Nov. 22, 2011 Rise Set
Actual Time 7:24 AM CST 4:27 PM CST
Civil Twilight 6:50 AM CST 5:01 PM CST
Nautical Twilight 6:12 AM CST 5:39 PM CST
Astronomical Twilight 5:35 AM CST 6:15 PM CST
Moon 4:06 AM CST (11/22) 2:33 PM CST (11/22)
Length of Visible Light 10h 11m
Length of Day
9h 03m
Waning Crescent, 9% of the Moon is Illuminated
Nov 22
Waning Crescent
Nov 25
New
Dec 2
First Quarter
Dec 10
Full
Dec 17
Last Quarter

Hourly Weather History & Observations

Time (CST) Temp. Windchill Dew Point Humidity Pressure Visibility Wind Dir Wind Speed Gust Speed Precip Events Conditions
12:13 AM 23.0 °F 17.0 °F 21.2 °F 93% 30.20 in 1.8 mi SSE 4.6 mph - N/A   Overcast
12:33 AM 23.0 °F 17.0 °F 21.2 °F 93% 30.20 in 2.5 mi South 4.6 mph - N/A   Overcast
12:52 AM 23.0 °F 17.0 °F 21.2 °F 93% 30.20 in 2.0 mi South 4.6 mph - N/A   Overcast
1:13 AM 23.0 °F 15.8 °F 21.2 °F 93% 30.21 in 3.0 mi South 5.8 mph - N/A   Overcast
1:33 AM 23.0 °F 18.4 °F 21.2 °F 93% 30.21 in 2.0 mi SSW 3.5 mph - N/A   Overcast
1:52 AM 24.8 °F - 23.0 °F 93% 30.21 in 1.8 mi Calm Calm - N/A   Overcast
2:13 AM 24.8 °F - 23.0 °F 93% 30.21 in 1.5 mi Calm Calm - N/A   Overcast
2:33 AM 24.8 °F - 23.0 °F 93% 30.20 in 1.0 mi Calm Calm - N/A   Overcast
2:52 AM 26.6 °F - 23.0 °F 86% 30.19 in 0.5 mi Calm Calm - N/A Fog Light Freezing Fog
3:13 AM 26.6 °F - 23.0 °F 86% 30.19 in 0.5 mi Calm Calm - N/A Fog Light Freezing Fog
3:33 AM 26.6 °F - 23.0 °F 86% 30.18 in 1.5 mi Calm Calm - N/A   Overcast
3:52 AM 26.6 °F - 23.0 °F 86% 30.17 in 2.5 mi Calm Calm - N/A   Overcast
4:13 AM 26.6 °F - 23.0 °F 86% 30.16 in 3.0 mi Calm Calm - N/A   Overcast
4:33 AM 26.6 °F - 24.8 °F 93% 30.15 in 3.0 mi Calm Calm - N/A   Overcast
4:52 AM 26.6 °F - 24.8 °F 93% 30.15 in 3.0 mi Calm Calm - N/A   Overcast
5:13 AM 26.6 °F - 24.8 °F 93% 30.14 in 4.0 mi Calm Calm - N/A   Overcast
5:53 AM 26.6 °F - 26.6 °F 100% 30.12 in 4.0 mi Calm Calm - N/A   Overcast
6:13 AM 28.4 °F - 26.6 °F 93% 30.11 in 4.0 mi Calm Calm - N/A   Overcast
6:32 AM 28.4 °F - 26.6 °F 93% 30.12 in 4.0 mi Calm Calm - N/A   Overcast
6:53 AM 28.4 °F - 26.6 °F 93% 30.11 in 4.0 mi Calm Calm - N/A   Overcast
7:12 AM 28.4 °F - 26.6 °F 93% 30.11 in 4.0 mi Calm Calm - N/A   Overcast
7:32 AM 28.4 °F - 26.6 °F 93% 30.10 in 4.0 mi Calm Calm - N/A   Overcast
7:53 AM 28.4 °F - 28.4 °F 100% 30.10 in 2.5 mi Calm Calm - N/A   Overcast
8:12 AM 28.4 °F - 28.4 °F 100% 30.09 in 2.5 mi Calm Calm - N/A   Overcast
8:33 AM 30.2 °F - 28.4 °F 93% 30.10 in 3.0 mi Calm Calm - N/A   Overcast
8:52 AM 32.0 °F - 30.2 °F 93% 30.10 in 3.0 mi Calm Calm - N/A   Overcast
9:13 AM 32.0 °F - 30.2 °F 93% 30.09 in 2.5 mi Calm Calm - N/A   Overcast
9:32 AM 32.0 °F 28.7 °F 30.2 °F 93% 30.09 in 2.5 mi SSE 3.5 mph - N/A   Overcast
9:52 AM 32.0 °F - 32.0 °F 100% 30.09 in 1.2 mi Calm Calm - N/A   Overcast
10:13 AM 32.0 °F 28.7 °F 32.0 °F 100% 30.08 in 1.2 mi SSE 3.5 mph - N/A   Overcast
10:32 AM 32.0 °F 26.4 °F 32.0 °F 100% 30.08 in 2.0 mi SSE 5.8 mph - N/A   Overcast
10:52 AM 32.0 °F 26.4 °F 32.0 °F 100% 30.07 in 2.0 mi South 5.8 mph - N/A   Overcast
11:32 AM 32.0 °F 24.8 °F 32.0 °F 100% 30.03 in 1.5 mi SSE 8.1 mph - N/A   Overcast
12:13 PM 32.0 °F 26.4 °F 32.0 °F 100% 30.02 in 2.5 mi South 5.8 mph - N/A   Overcast
12:32 PM 32.0 °F 24.2 °F 32.0 °F 100% 30.01 in 3.0 mi South 9.2 mph - N/A   Overcast
1:32 PM 32.0 °F 25.6 °F 32.0 °F 100% 30.01 in 3.0 mi South 6.9 mph - N/A   Overcast
1:52 PM 32.0 °F 24.8 °F 32.0 °F 100% 30.01 in 3.0 mi South 8.1 mph - N/A   Overcast
2:13 PM 32.0 °F 26.4 °F 32.0 °F 100% 30.00 in 3.0 mi SSW 5.8 mph - N/A   Overcast
2:32 PM 32.0 °F 25.6 °F 32.0 °F 100% 30.00 in 3.0 mi SSW 6.9 mph - N/A   Overcast
2:52 PM 32.0 °F 25.6 °F 32.0 °F 100% 29.99 in 3.0 mi South 6.9 mph - N/A   Overcast
3:13 PM 32.0 °F 25.6 °F 32.0 °F 100% 29.99 in 3.0 mi SSW 6.9 mph - N/A   Overcast
3:33 PM 32.0 °F 25.6 °F 32.0 °F 100% 29.99 in 3.0 mi SSW 6.9 mph - N/A   Overcast
3:52 PM 32.0 °F 25.6 °F 32.0 °F 100% 29.99 in 3.0 mi SSW 6.9 mph - N/A   Overcast
4:13 PM 32.0 °F 26.4 °F 32.0 °F 100% 30.00 in 3.0 mi SSW 5.8 mph - N/A   Overcast
4:32 PM 32.0 °F 26.4 °F 32.0 °F 100% 30.00 in 3.0 mi SW 5.8 mph - N/A   Overcast
4:53 PM 32.0 °F 25.6 °F 32.0 °F 100% 30.00 in 4.0 mi SSW 6.9 mph - N/A   Overcast
5:13 PM 32.0 °F 26.4 °F 32.0 °F 100% 30.00 in 4.0 mi SSW 5.8 mph - N/A   Overcast
5:32 PM 33.8 °F 28.6 °F 32.0 °F 93% 30.00 in 4.0 mi SSW 5.8 mph - N/A   Overcast
5:52 PM 33.8 °F 27.7 °F 32.0 °F 93% 29.99 in 4.0 mi SSW 6.9 mph - N/A   Overcast
6:13 PM 33.8 °F 27.0 °F 32.0 °F 93% 29.98 in 3.0 mi South 8.1 mph - N/A   Overcast
6:33 PM 33.8 °F 28.6 °F 32.0 °F 93% 29.99 in 4.0 mi SSW 5.8 mph - N/A   Overcast
6:52 PM 33.8 °F 28.6 °F 32.0 °F 93% 29.99 in 4.0 mi SSW 5.8 mph - N/A   Overcast
7:13 PM 33.8 °F 29.6 °F 32.0 °F 93% 29.99 in 4.0 mi SSW 4.6 mph - N/A   Overcast
7:33 PM 33.8 °F 29.6 °F 32.0 °F 93% 30.00 in 4.0 mi SSW 4.6 mph - N/A   Overcast
8:13 PM 33.8 °F 28.6 °F 32.0 °F 93% 30.00 in 4.0 mi SSW 5.8 mph - N/A   Overcast
8:33 PM 33.8 °F 28.6 °F 32.0 °F 93% 30.00 in 4.0 mi SSW 5.8 mph - N/A   Overcast
9:13 PM 33.8 °F 27.7 °F 32.0 °F 93% 30.00 in 4.0 mi SW 6.9 mph - N/A   Overcast
9:33 PM 33.8 °F 28.6 °F 32.0 °F 93% 30.01 in 5.0 mi SW 5.8 mph - N/A   Overcast
9:52 PM 33.8 °F 27.7 °F 32.0 °F 93% 30.00 in 5.0 mi SW 6.9 mph - N/A   Overcast
10:13 PM 33.8 °F 28.6 °F 32.0 °F 93% 30.00 in 5.0 mi SW 5.8 mph - N/A   Overcast
10:33 PM 33.8 °F 26.4 °F 32.0 °F 93% 30.00 in 5.0 mi SW 9.2 mph - N/A   Overcast
10:52 PM 33.8 °F 26.4 °F 32.0 °F 93% 30.00 in 5.0 mi SW 9.2 mph - N/A   Overcast
11:13 PM 33.8 °F 25.8 °F 32.0 °F 93% 30.01 in 5.0 mi WSW 10.4 mph - N/A   Overcast
11:33 PM 33.8 °F 25.8 °F 32.0 °F 93% 30.01 in 4.0 mi SW 10.4 mph - N/A   Overcast
11:52 PM 32.0 °F 23.6 °F 32.0 °F 100% 30.01 in 4.0 mi SW 10.4 mph - N/A   Overcast